Toms River, NJ

4:29 AM EST on November 19, 2017 (GMT -0500)
Miller

Weather History for KMJX - November, 2013

Change the Weather History Date:

Wednesday, November 20, 2013

  Actual Average Record
Temperature  
Mean Temperature 32 °F -  
Max Temperature 42 °F 56 °F 74 °F (1985)
Min Temperature 23 °F 33 °F 18 °F (1959)
Degree Days  
Heating Degree Days 32    
Moisture  
Dew Point 17 °F    
Average Humidity 62    
Maximum Humidity 74    
Minimum Humidity 36    
Precipitation  
Precipitation 0.00 in - - ()
Sea Level Pressure  
Sea Level Pressure 30.51 in    
Wind  
Wind Speed 3 mph (North)    
Max Wind Speed 9 mph    
Max Gust Speed -    
Visibility 10 miles    
Events      
Averages and records for this station are not official NWS values.
T = Trace of Precipitation, MM = Missing Value Source: NWS Daily Summary

Daily Weather History Graph

Daily Weather History Graph

Search for Another Location

Airport or City:

Trip Planner

Search our weather history database for the weather conditions in past years. The results will help you decide how hot, cold, wet, or windy it might be!

Date:

Astronomy

Nov. 20, 2013 Rise Set
Actual Time 6:48 AM EST 4:37 PM EST
Civil Twilight 6:18 AM EST 5:06 PM EST
Nautical Twilight 5:45 AM EST 5:39 PM EST
Astronomical Twilight 5:13 AM EST 6:11 PM EST
Moon 7:17 PM EST (11/20) 9:11 AM EST (11/20)
Length of Visible Light 10h 47m
Length of Day
9h 49m
Waning Gibbous, 91% of the Moon is Illuminated
Nov 20
Waning Gibbous
Nov 25
Last Quarter
Dec 2
New
Dec 9
First Quarter
Dec 17
Full

Hourly Weather History & Observations

Time (EST) Temp. Windchill Dew Point Humidity Pressure Visibility Wind Dir Wind Speed Gust Speed Precip Events Conditions
12:15 AM - - - N/A% 30.36 in 10.0 mi NNW 4.6 mph - N/A   Clear
12:35 AM - - - N/A% 30.36 in 10.0 mi NNW 3.5 mph - N/A   Clear
12:55 AM - - - N/A% 30.36 in 10.0 mi Calm Calm - N/A   Clear
1:15 AM - - - N/A% 30.36 in 10.0 mi NNW 4.6 mph - N/A   Clear
1:35 AM - - - N/A% 30.37 in 10.0 mi Calm Calm - N/A   Clear
1:55 AM - - - N/A% 30.38 in 10.0 mi Calm Calm - N/A   Clear
2:15 AM - - - N/A% 30.38 in 10.0 mi NW 3.5 mph - N/A   Clear
2:35 AM - - - N/A% 30.38 in 10.0 mi NNW 3.5 mph - N/A   Clear
2:55 AM - - - N/A% 30.40 in 10.0 mi Calm Calm - N/A   Clear
3:15 AM - - - N/A% 30.40 in 10.0 mi NNW 5.8 mph - N/A   Clear
3:35 AM - - - N/A% 30.41 in 10.0 mi NW 5.8 mph - N/A   Clear
3:55 AM - - - N/A% 30.42 in 10.0 mi NW 4.6 mph - N/A   Clear
4:15 AM - - - N/A% 30.43 in 10.0 mi Calm Calm - N/A   Clear
4:35 AM - - - N/A% 30.43 in 10.0 mi Calm Calm - N/A   Clear
4:55 AM - - - N/A% 30.44 in 10.0 mi North 5.8 mph - N/A   Clear
5:15 AM - - - N/A% 30.44 in 10.0 mi North 4.6 mph - N/A   Clear
5:35 AM - - - N/A% 30.46 in 10.0 mi Calm Calm - N/A   Clear
5:55 AM - - - N/A% 30.46 in 10.0 mi Calm Calm - N/A   Clear
6:15 AM - - - N/A% 30.47 in 10.0 mi NNW 4.6 mph - N/A   Clear
6:35 AM - - - N/A% 30.48 in 10.0 mi Calm Calm - N/A   Clear
6:55 AM - - - N/A% 30.49 in 10.0 mi NNW 3.5 mph - N/A   Clear
7:15 AM - - - N/A% 30.50 in 10.0 mi NW 5.8 mph - N/A   Clear
7:35 AM - - - N/A% 30.50 in 10.0 mi NW 5.8 mph - N/A   Clear
7:55 AM - - - N/A% 30.51 in 10.0 mi NW 5.8 mph - N/A   Clear
8:15 AM - - - N/A% 30.52 in 10.0 mi NNW 5.8 mph - N/A   Clear
8:35 AM - - - N/A% 30.52 in 10.0 mi North 9.2 mph - N/A   Clear
8:55 AM - - - N/A% 30.52 in 10.0 mi North 3.5 mph - N/A   Clear
9:15 AM - - - N/A% 30.53 in 10.0 mi NNE 8.1 mph - N/A   Clear
9:35 AM - - - N/A% 30.54 in 10.0 mi NE 5.8 mph - N/A   Clear
9:55 AM - - - N/A% 30.54 in 10.0 mi NNE 5.8 mph - N/A   Clear
10:15 AM - - - N/A% 30.55 in 10.0 mi NNE 6.9 mph - N/A   Clear
10:35 AM - - - N/A% 30.55 in 10.0 mi NE 8.1 mph - N/A   Clear
10:55 AM - - - N/A% 30.55 in 10.0 mi NE 8.1 mph - N/A   Clear
11:15 AM - - - N/A% 30.54 in 10.0 mi North 6.9 mph - N/A   Clear
11:35 AM 42.8 °F 41.1 °F 17.6 °F 36% 30.54 in 10.0 mi NE 3.5 mph - N/A   Clear
11:55 AM - - - N/A% 30.54 in 10.0 mi Calm Calm - N/A   Clear
12:15 PM - - - N/A% 30.54 in 10.0 mi North 3.5 mph - N/A   Clear
12:35 PM - - - N/A% 30.54 in 10.0 mi Calm Calm - N/A   Clear
12:55 PM - - - N/A% 30.54 in 10.0 mi Calm Calm - N/A   Clear
1:15 PM - - - N/A% 30.54 in 10.0 mi Calm Calm - N/A   Clear
1:35 PM - - - N/A% 30.54 in 10.0 mi NE 5.8 mph - N/A   Clear
1:55 PM - - - N/A% 30.54 in 10.0 mi Calm Calm - N/A   Clear
2:15 PM - - - N/A% 30.54 in 10.0 mi NE 5.8 mph - N/A   Clear
2:35 PM - - - N/A% 30.54 in 10.0 mi Calm Calm - N/A   Clear
2:55 PM - - - N/A% 30.54 in 10.0 mi Calm Calm - N/A   Clear
3:15 PM - - - N/A% 30.54 in 10.0 mi East 3.5 mph - N/A   Clear
3:35 PM - - - N/A% 30.54 in 10.0 mi Calm Calm - N/A   Clear
3:55 PM - - - N/A% 30.53 in 10.0 mi Calm Calm - N/A   Clear
4:15 PM - - - N/A% 30.54 in 10.0 mi East 3.5 mph - N/A   Clear
4:35 PM - - - N/A% 30.54 in 10.0 mi Calm Calm - N/A   Clear
4:55 PM - - - N/A% 30.54 in 10.0 mi Calm Calm - N/A   Clear
5:15 PM 33.8 °F - 17.6 °F 52% 30.55 in 10.0 mi Calm Calm - N/A   Clear
5:35 PM 30.2 °F - 17.6 °F 60% 30.55 in 10.0 mi Calm Calm - N/A   Clear
5:55 PM 30.2 °F - 17.6 °F 60% 30.56 in 10.0 mi Calm Calm - N/A   Clear
6:15 PM 28.4 °F - 15.8 °F 59% 30.56 in 10.0 mi Calm Calm - N/A   Clear
6:35 PM 26.6 °F - 15.8 °F 64% 30.56 in 10.0 mi Calm Calm - N/A   Clear
6:55 PM 26.6 °F - 17.6 °F 69% 30.57 in 10.0 mi Calm Calm - N/A   Clear
7:15 PM 26.6 °F - 15.8 °F 64% 30.57 in 10.0 mi Calm Calm - N/A   Clear
7:35 PM - - - N/A% 30.57 in 10.0 mi Calm Calm - N/A   Clear
7:55 PM - - - N/A% 30.57 in 10.0 mi Calm Calm - N/A   Clear
8:15 PM - - - N/A% 30.57 in 10.0 mi Calm Calm - N/A   Clear
8:35 PM - - - N/A% 30.58 in 10.0 mi Calm Calm - N/A   Clear
8:55 PM - - - N/A% 30.57 in 10.0 mi Calm Calm - N/A   Clear
9:15 PM 24.8 °F - 17.6 °F 74% 30.58 in 10.0 mi Calm Calm - N/A   Clear
9:35 PM 23.0 °F - 15.8 °F 74% 30.59 in 10.0 mi Calm Calm - N/A   Clear
9:55 PM - - - N/A% 30.58 in 10.0 mi Calm Calm - N/A   Clear
10:15 PM - - - N/A% 30.58 in 10.0 mi Calm Calm - N/A   Clear
10:35 PM - - - N/A% 30.58 in 10.0 mi Calm Calm - N/A   Clear
10:55 PM 24.8 °F - 17.6 °F 74% 30.59 in 10.0 mi Calm Calm - N/A   Mostly Cloudy
11:15 PM - - - N/A% 30.59 in 10.0 mi Calm Calm - N/A   Overcast
11:35 PM - - - N/A% 30.60 in 10.0 mi Calm Calm - N/A   Overcast
11:55 PM - - - N/A% 30.60 in 10.0 mi Calm Calm - N/A   Overcast